Theta_e
319 322 323 325 326 323 323 324 321 317 318 319 317 317 315 314 313 312 312 311 309 311 314 313 314 314 313 314 312 310 310 309 311 314 316 317 317 318 319 318 316 316 316 315 316 316 316 317 316 316 317 318 319 319 320 321 322 323 325 326 325 325 325 324 322 322 322 323 323 323 323 322 323 325 325 325 323 322 322 323 325 326 326 326 326 326
320 325 324 324 325 323 322 322 317 315 316 316 317 317 315 314 313 312 311 311 309 310 313 313 313 314 313 313 311 309 309 310 310 311 314 315 316 317 317 317 316 315 315 315 316 316 316 317 316 316 316 317 317 317 318 319 320 321 323 324 324 324 324 323 321 321 320 320 320 321 321 322 323 324 324 324 324 324 323 323 324 324 325 325 325 324
321 325 325 323 322 321 321 321 319 318 319 320 320 318 317 315 314 314 312 312 311 310 314 314 312 313 312 312 310 307 308 311 311 311 313 314 314 315 316 316 315 315 315 315 316 316 316 316 316 316 315 315 315 315 316 317 317 319 320 322 323 324 323 321 321 320 320 319 320 322 321 323 324 324 324 324 325 326 326 326 325 324 324 323 323 325
323 323 322 320 320 320 321 321 321 322 322 322 321 320 318 315 313 315 313 312 312 311 312 313 313 313 312 312 311 308 309 311 311 312 312 312 313 314 315 315 315 315 315 315 315 315 315 315 315 315 314 314 314 314 315 316 316 317 318 319 321 321 321 320 320 320 321 323 324 325 325 324 325 324 324 325 325 325 326 327 326 325 324 324 323 324
322 319 318 319 320 321 320 320 321 323 323 322 320 320 318 314 311 312 312 311 313 312 310 311 314 314 313 314 313 311 309 308 309 310 311 311 312 313 313 313 314 315 314 315 315 314 314 314 314 314 313 313 313 313 313 314 314 315 315 317 318 319 319 319 319 321 324 327 328 328 328 326 325 324 323 324 324 323 323 324 324 323 323 324 324 323
318 315 317 321 321 320 319 320 320 322 323 322 319 318 316 313 309 309 311 311 314 316 313 312 315 317 319 318 315 313 311 309 309 308 309 311 312 312 312 313 314 314 314 314 314 314 314 314 314 314 313 313 313 313 313 313 313 313 313 314 316 318 318 318 319 321 325 328 329 329 328 326 324 322 320 320 321 321 322 322 322 321 320 322 322 324
316 314 317 321 320 320 320 320 319 320 323 323 320 316 313 312 311 310 311 311 314 317 315 312 313 318 321 320 318 316 313 312 311 308 308 310 311 311 312 314 314 314 314 315 315 314 314 314 314 313 313 313 313 313 313 313 313 313 313 313 314 316 317 317 318 321 325 328 329 328 327 325 323 321 319 319 320 321 322 322 322 321 320 321 321 324
315 315 317 319 320 320 320 320 318 319 322 322 319 316 313 312 312 311 311 312 315 316 314 312 312 315 316 316 319 315 312 313 312 310 309 308 310 312 313 314 315 315 315 315 315 314 314 314 313 314 314 313 313 313 313 314 314 313 313 313 314 315 315 317 318 320 323 325 326 326 326 325 323 321 320 321 322 324 324 323 322 321 321 321 322 322
313 317 318 318 320 319 320 321 317 318 322 318 315 315 313 312 312 311 310 312 313 313 314 313 313 314 315 318 319 313 313 315 313 313 311 308 311 313 314 315 315 315 315 315 315 315 315 314 314 314 314 314 314 313 313 313 314 314 313 313 314 314 315 316 318 320 322 324 325 326 326 326 324 322 323 323 324 324 324 323 323 323 322 322 323 322
312 315 316 317 320 319 320 319 316 318 320 314 313 315 315 316 316 313 312 312 311 313 314 314 313 314 316 321 319 312 314 315 314 314 310 308 311 313 315 316 315 315 315 315 315 314 315 314 314 314 313 314 314 313 313 313 313 314 314 314 314 314 315 315 317 319 320 323 325 326 327 326 325 325 325 325 326 325 325 324 323 323 323 323 323 320
310 312 314 315 317 316 316 316 314 316 315 312 315 317 317 318 318 319 318 314 313 315 315 314 314 313 315 318 317 314 315 315 314 315 312 309 310 313 315 316 316 316 315 315 315 314 315 315 314 314 313 313 314 313 314 313 313 313 313 314 314 314 315 315 316 317 319 321 323 325 325 326 326 326 326 326 326 326 326 324 323 323 323 323 321 318
310 312 313 312 313 314 314 314 313 313 312 314 317 318 318 318 317 319 318 314 316 317 315 315 314 311 313 316 316 315 315 316 314 315 316 312 310 314 316 316 316 316 315 315 315 315 315 315 315 315 314 314 314 313 314 313 313 313 313 313 314 314 315 315 315 316 318 319 321 323 323 324 325 325 326 326 326 327 326 325 324 323 323 322 319 319
313 313 312 311 312 314 315 315 314 313 313 316 316 317 319 318 317 319 317 315 317 316 312 311 311 311 313 315 316 315 314 314 310 311 314 312 311 315 315 315 314 314 314 314 315 315 315 315 315 315 315 314 314 314 314 313 313 313 313 313 313 314 314 314 315 316 317 318 320 321 322 323 324 325 326 326 326 327 326 325 324 322 323 321 317 319
315 313 311 312 312 312 316 316 315 315 315 315 315 317 319 318 318 320 318 317 319 317 312 308 309 314 316 315 316 316 314 312 308 307 310 310 311 314 313 313 313 312 313 313 314 314 315 315 315 315 315 315 314 314 314 313 313 313 313 313 313 314 314 315 316 316 317 318 319 321 322 323 324 325 325 326 327 327 326 325 324 322 322 320 317 320
316 316 313 313 312 313 315 316 317 317 315 314 314 315 317 318 319 320 319 319 319 317 313 309 312 319 320 318 315 310 308 309 308 309 310 310 311 312 312 312 313 313 313 313 314 314 314 314 314 315 315 315 314 314 314 314 313 313 313 314 313 313 314 315 315 316 316 318 319 321 323 325 326 326 327 327 326 326 325 324 323 322 321 319 320 321
315 317 313 311 311 312 314 314 315 316 315 313 312 313 315 318 319 318 317 316 315 316 314 311 316 320 318 316 311 306 307 308 307 308 309 310 311 311 312 312 313 314 313 313 314 314 313 312 312 314 314 315 315 314 314 314 313 314 314 314 313 313 314 314 315 315 316 317 319 321 323 325 327 327 328 327 325 324 324 323 323 322 320 320 320 320
316 316 311 309 310 311 313 314 313 315 317 314 312 313 314 316 316 314 314 312 311 315 316 313 315 316 314 314 313 313 313 312 309 307 306 309 311 311 311 313 313 313 313 313 314 313 312 312 312 313 313 314 314 314 314 314 313 314 314 314 314 314 314 315 315 316 316 318 319 321 323 325 326 327 327 326 323 322 322 323 323 322 322 321 319 318
316 315 310 310 312 310 310 312 312 312 315 314 314 314 312 313 314 313 314 314 312 314 317 316 314 313 314 317 317 314 314 315 313 310 307 307 309 310 312 313 313 313 313 313 313 312 312 312 312 313 314 314 314 314 314 314 314 313 314 314 314 314 314 315 315 316 317 318 319 320 323 325 326 326 326 324 321 320 322 323 323 324 323 321 318 317
318 318 311 310 312 309 308 312 313 312 311 312 314 314 313 315 316 313 313 315 315 314 317 318 313 312 315 318 318 313 314 318 316 314 312 309 308 310 312 313 313 313 313 312 312 313 312 313 313 314 314 314 314 315 314 314 314 314 314 315 315 315 316 316 318 318 318 319 319 320 322 324 326 325 324 323 321 320 321 322 324 323 322 319 318 317
318 321 314 310 312 311 310 312 314 313 310 309 310 312 314 315 316 316 314 315 316 315 317 317 314 315 316 317 320 316 315 318 315 314 315 311 308 310 311 312 312 312 313 313 312 313 313 314 314 314 314 314 314 314 314 314 315 315 315 315 316 316 317 317 318 317 316 316 316 316 319 322 323 323 323 322 321 320 320 321 322 320 319 318 317 315
315 319 316 312 311 311 312 312 314 314 311 311 312 312 313 313 315 317 314 314 315 315 316 315 314 320 322 316 316 315 316 319 316 314 313 308 308 310 311 312 313 312 313 313 313 313 313 314 314 314 314 313 314 313 313 314 314 314 314 314 315 315 315 315 314 314 313 312 312 313 315 317 318 320 322 322 321 320 320 321 320 318 318 318 315 312
314 316 316 313 311 312 313 314 315 314 313 313 312 313 313 313 314 316 315 315 313 312 317 315 312 321 325 314 311 312 315 315 310 309 308 307 308 310 311 312 312 313 313 313 313 313 314 314 313 313 313 313 313 312 313 313 312 313 313 313 313 313 313 313 312 312 312 312 312 312 314 315 316 319 321 321 320 320 320 320 319 318 318 315 312 311
314 316 315 313 313 314 313 311 310 311 313 313 312 313 315 313 313 315 316 316 313 311 315 313 310 317 322 317 311 309 308 305 304 304 304 306 309 310 310 311 311 313 313 313 313 313 313 313 313 313 313 312 312 312 312 312 312 312 311 311 312 312 312 312 312 312 312 312 312 313 315 316 316 317 318 319 319 320 319 319 318 317 314 312 311 311
313 316 316 313 313 314 314 311 308 309 313 313 312 313 314 314 314 315 317 317 315 314 313 312 311 315 324 326 309 299 300 301 303 305 305 307 310 310 309 310 310 312 313 313 313 313 313 313 312 312 312 312 312 312 312 312 312 311 311 311 310 310 311 311 311 312 312 312 313 315 316 317 317 317 319 319 319 319 318 318 316 314 312 311 311 311
313 315 315 314 314 316 316 314 312 311 312 313 314 314 314 315 314 314 315 314 314 315 314 312 313 316 325 328 311 302 306 306 304 307 307 306 309 310 309 309 309 310 313 313 313 313 313 312 312 312 313 313 313 313 312 312 312 311 311 310 310 309 309 310 311 311 312 314 315 316 317 317 318 318 319 318 318 317 316 315 313 311 311 311 311 310
315 316 314 315 316 316 316 315 315 314 312 313 315 314 313 314 313 314 316 313 313 315 313 312 314 319 323 323 316 313 315 312 307 307 308 307 308 309 309 309 309 309 312 313 313 313 312 312 312 312 313 313 313 313 312 312 311 311 311 310 309 309 309 309 311 312 313 314 314 315 315 316 317 317 317 316 316 315 314 312 311 311 311 311 310 310
318 317 314 315 315 315 317 317 316 315 313 313 315 314 314 314 313 315 316 314 314 314 313 312 313 316 319 318 317 317 317 317 313 307 306 308 309 309 309 309 308 309 311 313 313 313 312 312 312 313 313 313 313 313 312 312 311 311 310 309 309 308 308 309 310 310 311 311 312 313 314 314 314 315 315 315 314 313 312 311 311 311 311 310 310 309
318 316 313 314 315 316 319 319 315 314 313 313 314 314 315 315 314 315 315 314 315 315 314 314 312 312 312 313 316 317 316 317 312 305 306 309 309 309 309 309 309 310 311 312 312 312 312 312 312 312 313 313 313 313 312 312 312 312 311 310 309 308 308 308 308 309 310 311 311 312 313 314 314 315 314 313 312 311 311 311 311 311 310 310 308 307
314 314 313 314 315 316 318 317 315 314 313 314 314 314 314 314 314 314 314 314 316 315 314 316 317 314 311 313 316 314 311 310 309 307 307 308 308 309 309 309 310 311 311 311 312 312 312 312 312 313 313 313 313 313 313 312 312 313 312 311 310 309 309 309 310 311 312 313 313 313 314 314 314 313 312 312 311 311 311 311 311 310 310 309 307 304
312 314 313 312 313 314 314 314 315 316 315 315 315 314 313 314 313 313 313 313 314 314 313 315 317 313 311 314 315 311 307 306 307 308 308 308 308 310 310 310 311 311 311 311 311 311 312 312 312 312 313 313 313 313 313 313 313 313 313 313 312 311 311 311 312 313 313 314 314 314 313 313 312 311 311 311 311 311 311 310 310 310 309 307 305 303
311 313 311 311 313 312 312 312 313 314 316 316 316 315 313 313 313 313 312 313 313 313 312 313 313 312 311 311 310 308 308 307 306 308 309 309 309 309 310 311 311 311 311 311 311 311 312 312 312 312 312 313 313 313 313 313 313 313 313 313 313 313 313 313 313 313 313 313 313 312 312 311 311 311 311 311 311 311 311 310 309 309 307 305 304 303
313 312 310 312 314 312 312 314 313 312 313 314 314 314 313 313 313 313 313 313 312 313 313 313 312 312 312 310 309 309 310 308 306 308 309 310 309 310 311 311 311 311 312 312 312 312 312 311 312 312 312 313 313 313 313 313 313 313 313 313 313 313 313 313 312 312 312 312 312 312 311 311 311 311 311 311 311 310 310 310 308 307 305 303 302 302
315 314 312 314 315 313 312 314 314 312 312 313 313 312 312 313 313 313 313 313 312 312 313 313 312 313 313 312 311 311 310 309 308 308 310 310 310 311 311 311 312 312 311 312 312 312 312 312 311 312 312 312 313 313 314 313 313 312 312 312 312 312 312 312 312 312 312 311 311 311 311 311 311 311 311 310 310 310 309 308 306 305 303 302 301 301
314 314 314 314 315 314 311 312 314 314 313 314 315 314 313 312 313 313 312 312 312 312 312 312 312 314 314 313 312 312 311 311 310 309 310 311 311 311 311 311 312 311 311 312 312 312 313 312 311 311 311 312 312 313 313 313 312 312 312 311 312 312 312 312 312 312 312 311 311 311 311 311 311 311 311 310 310 309 308 306 304 303 302 301 301 301
314 314 314 315 316 314 311 312 314 314 314 314 315 315 313 311 311 313 312 312 312 312 312 312 312 313 312 311 311 311 310 311 310 309 310 311 311 311 311 311 312 312 312 312 312 312 312 312 312 312 311 312 312 312 313 313 312 312 312 311 312 312 312 312 312 312 312 311 311 311 311 311 311 310 310 310 309 308 306 304 302 301 301 301 300 300
312 313 314 315 314 312 311 313 314 314 314 315 315 312 311 311 311 311 312 312 311 311 312 311 311 312 309 308 309 309 309 309 309 309 310 311 311 311 312 312 312 312 312 312 312 312 312 312 312 312 311 312 312 312 312 312 312 312 312 312 312 311 311 312 312 311 311 312 311 311 311 311 310 310 310 309 308 306 304 302 301 301 301 300 299 298
311 312 313 312 312 313 313 312 314 315 314 316 315 312 310 311 312 312 313 313 311 310 311 310 311 311 309 308 309 308 308 309 310 310 310 311 311 311 311 312 312 312 312 313 313 313 312 312 312 312 311 311 311 312 312 312 312 312 312 312 311 311 311 311 311 312 311 312 311 311 311 311 310 310 309 309 307 305 303 302 301 300 300 299 298 297
310 312 313 312 311 315 316 313 313 314 314 313 315 314 309 308 311 313 313 313 312 310 309 309 310 311 310 309 309 307 308 310 311 310 311 311 311 311 311 312 312 312 312 313 313 313 312 312 312 311 312 311 311 311 311 312 312 312 312 312 311 311 311 311 311 311 311 311 311 311 311 310 310 310 309 308 306 304 302 301 300 300 299 298 297 296
310 311 313 314 313 314 315 314 313 313 313 314 317 316 309 306 309 311 311 314 314 310 308 309 309 309 309 308 307 307 309 311 310 310 311 312 311 311 311 312 312 312 312 312 312 312 312 312 312 312 312 312 311 311 311 312 312 312 312 312 311 311 311 311 311 311 311 311 311 310 310 310 309 309 308 307 305 303 301 300 300 299 298 297 296 295
311 311 312 314 314 313 313 313 313 312 313 316 318 314 308 307 310 311 314 319 317 309 307 309 308 308 309 308 306 307 309 311 311 310 311 311 311 311 311 311 312 312 312 312 312 312 312 312 312 312 312 312 311 311 311 311 311 312 311 311 311 311 311 311 311 311 311 311 310 310 310 309 309 308 307 305 303 301 300 299 299 298 297 296 295 294
311 312 313 313 313 312 312 313 313 313 316 319 315 307 306 309 312 313 316 319 314 307 307 309 308 309 309 307 306 307 309 310 310 310 311 311 311 312 312 312 312 313 312 313 312 312 312 312 312 312 311 311 311 311 311 311 311 311 311 311 311 311 311 311 310 310 311 310 310 310 309 309 308 307 304 302 300 300 299 299 298 297 296 295 295 294
311 312 313 313 312 313 313 312 313 314 316 316 310 304 306 312 315 314 313 312 311 309 309 310 310 310 310 308 307 308 309 309 309 309 310 311 312 312 312 312 312 312 312 312 312 311 312 311 311 311 311 310 310 310 310 310 311 310 311 311 311 311 311 310 310 310 310 310 310 309 309 308 307 305 302 300 299 298 298 298 297 296 295 295 294 294
311 311 312 311 312 315 314 312 313 315 312 309 307 307 309 312 314 313 310 310 310 311 311 311 311 311 310 308 309 309 309 309 309 309 310 311 311 311 312 311 312 311 311 311 311 311 311 311 311 311 311 310 310 310 309 310 310 310 311 311 311 311 310 310 309 309 309 309 309 308 308 307 306 303 301 299 298 297 297 297 296 295 294 294 294 293
311 311 312 312 311 313 313 312 313 313 309 307 309 311 310 311 311 311 311 310 311 312 312 312 312 311 311 310 310 310 310 310 310 310 310 310 310 310 311 311 311 311 311 311 311 310 311 311 311 310 310 310 310 310 310 310 310 310 310 310 310 310 309 309 309 308 308 308 308 308 307 306 304 302 299 298 297 296 296 295 295 294 294 293 293 293
311 310 311 314 314 312 312 312 310 308 306 308 310 311 310 309 310 311 312 312 312 312 312 312 312 311 311 311 310 310 310 310 311 310 310 310 310 310 310 310 311 311 311 310 311 311 310 311 311 311 310 310 310 309 309 309 309 309 310 310 309 309 309 309 308 308 308 307 307 307 306 305 302 300 298 297 296 296 295 295 294 294 294 293 293 293
310 307 308 315 317 312 310 310 307 305 306 307 310 310 310 310 310 310 311 312 312 312 312 311 311 311 311 311 310 311 311 311 310 311 310 310 310 310 310 310 310 310 311 310 311 311 311 311 311 311 311 310 310 309 309 309 309 309 309 309 309 308 308 308 308 307 307 307 306 306 305 303 301 298 297 296 295 295 295 294 294 294 293 293 293 293
308 306 308 315 316 311 311 312 309 308 307 307 309 310 310 310 310 310 311 311 312 312 311 311 311 311 311 311 310 311 311 311 310 311 310 310 310 310 310 311 310 310 310 311 311 311 311 311 311 311 310 310 309 309 309 308 308 308 308 308 308 307 307 307 307 306 306 306 306 305 304 302 300 298 297 296 295 294 294 293 293 293 293 293 293 293
309 307 311 316 314 311 312 311 307 307 307 307 308 310 310 311 311 311 311 311 311 311 311 311 311 311 311 311 311 310 311 311 310 310 311 310 310 311 310 310 310 310 311 311 311 311 310 310 310 310 310 310 309 309 308 308 308 307 307 307 307 307 306 306 306 306 305 305 305 304 303 301 299 297 296 295 295 294 294 293 293 293 292 293 292 292
307 308 312 314 313 312 312 307 304 306 308 308 308 309 310 311 312 312 312 311 310 310 311 310 310 311 311 311 311 311 311 311 310 311 311 310 310 311 310 310 310 311 311 311 311 310 310 310 310 310 310 309 309 309 308 308 307 307 307 307 307 306 306 305 305 305 304 304 304 303 302 300 298 296 296 295 295 294 294 293 293 292 292 292 291 291
307 311 312 311 312 313 311 308 307 310 312 309 308 310 312 312 311 311 311 311 310 310 310 310 310 310 310 311 311 311 311 311 311 311 310 310 310 310 310 310 310 310 310 310 310 310 310 311 311 310 310 309 308 308 308 307 307 307 306 306 306 306 305 305 304 304 303 303 303 302 300 299 297 296 295 295 294 294 293 293 292 291 291 291 290 290
307 311 310 310 312 312 309 307 307 310 311 309 310 311 311 311 312 311 311 311 312 311 310 310 310 310 310 310 311 311 311 310 311 311 310 310 310 310 309 310 310 310 310 310 310 310 311 311 311 310 310 309 308 308 307 307 306 306 306 305 305 305 305 304 304 303 303 303 302 301 300 298 296 295 295 294 294 293 293 292 292 291 290 290 290 290
Wind_Speed
12 6 5 7 6 9 9 8 7 7 7 8 6 6 6 5 7 5 4 5 3 2 7 7 8 11 12 11 13 12 10 14 19 19 22 25 27 30 32 34 35 36 33 29 29 32 31 30 30 30 31 31 32 32 33 33 34 33 33 32 32 30 28 27 26 26 25 25 24 24 24 23 22 20 20 19 19 18 18 18 18 18 17 17 17 16
9 6 7 7 7 10 11 9 9 9 8 7 5 4 4 6 6 5 5 6 3 1 5 5 6 11 13 11 10 8 8 13 20 23 27 30 29 29 30 33 34 34 32 31 32 33 31 31 31 31 31 32 33 32 32 33 33 33 33 34 33 31 30 29 27 26 26 25 24 23 23 21 20 19 19 19 18 18 18 17 18 18 17 17 17 15
5 5 5 8 9 10 9 9 10 9 7 5 4 3 3 3 3 6 6 5 2 2 5 4 5 10 12 12 10 10 12 17 23 25 28 30 28 28 31 33 35 34 33 33 34 32 31 31 31 31 32 32 32 31 32 32 32 33 34 34 34 33 33 31 28 27 26 24 22 21 21 20 19 18 18 17 17 18 19 19 18 17 16 16 15 14
5 4 7 11 12 12 9 9 11 8 6 5 4 3 3 1 1 5 2 4 3 2 3 3 4 7 9 10 9 13 19 21 22 23 25 26 28 32 34 34 34 35 35 35 33 32 32 32 31 32 32 32 32 32 33 33 33 34 34 35 34 34 33 32 30 28 25 23 21 21 20 20 20 19 19 18 19 19 19 20 19 18 17 16 14 15
3 2 11 14 11 12 10 9 11 8 6 6 7 6 5 2 2 4 4 6 5 2 1 2 5 6 7 9 9 10 15 18 21 21 21 24 28 33 34 33 34 36 37 36 34 33 33 32 31 31 31 31 33 34 33 33 33 33 34 34 34 34 34 32 30 28 26 24 23 23 23 23 23 22 22 21 21 20 19 18 18 18 17 16 17 15
2 3 10 12 8 11 11 9 11 10 6 5 7 9 8 5 3 5 6 7 5 4 2 1 5 6 4 6 9 7 6 10 16 17 22 27 28 30 32 34 37 37 37 37 35 34 34 33 32 30 31 32 34 34 33 32 33 33 32 32 33 34 33 32 30 28 27 27 26 26 25 25 25 24 24 23 21 20 18 16 15 16 15 16 16 14
2 2 7 9 9 11 10 9 10 11 7 3 5 9 9 7 4 4 6 3 1 4 4 1 4 7 6 6 9 7 6 9 11 12 20 28 28 28 31 34 37 38 38 37 36 35 34 34 32 31 30 30 32 32 32 32 33 32 32 32 32 33 32 31 30 29 29 29 28 27 27 26 26 25 24 22 20 18 16 16 16 17 16 16 15 15
4 5 4 7 9 8 8 8 10 13 8 3 6 12 11 9 5 3 5 4 3 4 7 3 2 5 7 8 6 2 5 9 10 10 14 23 27 28 31 33 36 38 39 38 36 35 34 32 31 30 29 28 28 28 30 32 32 32 32 32 32 32 32 31 31 30 30 29 29 28 28 27 27 25 23 21 20 18 17 17 18 18 17 17 16 16
5 8 7 8 8 6 7 6 11 13 6 1 6 12 11 8 3 1 2 4 2 3 7 7 3 3 8 7 2 1 5 9 11 11 12 19 27 30 33 35 36 37 38 38 37 35 33 31 30 28 27 27 26 25 28 30 31 31 31 32 32 31 32 31 31 31 31 30 30 29 29 29 28 25 24 23 22 20 19 19 19 19 18 17 17 17
2 9 13 10 7 6 3 5 12 13 4 3 8 10 7 7 4 1 2 2 0 1 10 9 4 4 7 6 2 2 5 8 9 8 10 20 30 33 35 38 38 37 38 38 37 35 33 32 30 28 28 28 27 26 26 27 29 31 32 32 32 32 32 31 31 31 31 31 31 31 31 30 29 27 25 24 23 22 21 21 21 21 19 18 18 18
0 6 11 6 3 5 5 6 11 12 5 5 7 9 8 6 5 3 2 2 1 6 11 11 7 5 6 5 5 5 6 8 8 7 9 17 27 33 37 40 41 40 40 40 39 38 36 33 32 31 30 29 28 27 27 27 28 31 32 33 33 32 32 31 32 31 31 32 32 32 32 31 29 28 27 26 25 23 22 22 22 22 21 19 18 17
4 5 4 2 5 8 8 5 5 6 7 7 5 6 5 2 3 3 2 3 2 8 7 5 6 5 8 5 3 6 6 7 9 8 8 12 22 32 37 40 41 41 42 42 42 42 40 38 36 35 33 31 29 29 29 29 27 29 31 33 34 33 32 32 32 32 32 32 32 32 31 30 29 28 27 26 25 24 23 23 23 23 21 20 18 17
3 2 3 3 7 11 9 4 3 3 5 7 6 6 5 1 1 1 2 2 5 7 2 1 4 4 10 7 5 10 8 8 12 13 15 17 22 29 31 31 31 32 35 38 40 42 43 42 40 38 35 32 30 29 28 28 27 28 29 32 33 33 33 33 33 33 33 32 32 31 30 29 28 27 27 26 24 24 24 24 24 23 22 21 19 17
1 3 4 4 4 11 12 7 3 3 6 6 6 7 6 3 3 5 4 2 5 5 2 1 2 4 9 6 9 14 12 14 18 19 21 21 22 25 23 21 21 23 27 30 33 36 38 40 41 39 36 33 31 28 27 28 28 28 28 30 32 32 32 33 33 33 33 33 32 31 29 28 27 27 26 25 25 25 25 25 25 23 22 21 18 16
4 2 6 7 5 11 12 8 6 5 6 6 4 4 3 3 4 5 4 3 4 4 3 1 2 5 6 4 7 12 14 16 17 19 21 21 24 24 23 21 20 21 23 25 28 30 32 35 38 38 36 33 31 30 28 28 29 29 28 29 30 30 31 32 33 33 33 33 31 30 29 28 27 26 26 26 26 26 24 23 22 20 20 19 17 16
4 2 4 5 9 13 10 7 9 9 5 4 4 3 1 3 3 2 3 3 2 2 3 2 3 5 4 6 8 6 10 14 17 19 19 22 26 25 25 25 23 22 21 23 25 25 26 29 32 34 34 32 32 32 31 30 30 30 29 29 29 30 31 32 32 33 32 31 30 30 30 29 28 27 26 27 27 25 22 21 20 19 19 19 17 18
4 1 1 4 8 13 13 11 11 9 6 3 5 6 4 3 4 2 1 1 2 3 4 3 6 6 3 9 9 4 6 9 12 16 18 25 27 23 26 30 27 24 21 21 22 20 21 24 27 29 30 31 31 32 32 31 32 32 31 31 31 31 32 32 33 32 32 31 31 30 30 30 30 29 29 28 26 23 22 21 21 21 20 19 19 17
5 2 1 3 5 9 14 16 11 8 9 7 7 7 4 2 2 2 1 2 1 4 4 2 7 6 3 7 6 1 6 8 8 11 15 21 22 21 29 33 30 26 22 20 20 19 19 20 22 24 25 27 28 29 30 30 32 33 33 33 33 33 34 34 34 34 33 32 31 31 31 30 30 29 29 28 24 23 24 24 23 23 22 21 19 15
5 4 2 3 4 3 5 10 8 6 7 6 5 8 6 2 3 4 3 2 3 4 4 2 4 4 5 6 3 4 9 9 9 10 9 14 19 24 31 32 28 25 22 19 18 18 19 19 20 22 23 24 25 26 27 28 29 31 33 34 34 34 34 34 34 34 33 32 31 31 30 30 30 29 28 26 24 24 25 25 26 26 24 21 17 14
4 5 1 2 3 4 4 5 7 6 3 2 2 6 4 1 4 5 4 2 3 3 4 3 3 3 6 6 4 7 9 8 10 10 8 13 22 27 29 28 24 23 21 18 17 19 20 21 21 22 22 23 24 25 26 27 29 30 32 34 34 35 35 35 35 34 33 32 31 30 30 29 29 28 27 26 26 26 26 26 27 25 21 18 16 15
3 4 3 1 1 4 4 5 7 9 6 3 4 6 4 3 2 1 2 2 2 3 3 3 3 5 6 5 8 11 10 10 11 9 8 13 19 21 23 23 22 21 21 19 18 20 21 21 22 21 22 23 23 25 27 29 31 32 33 34 35 36 36 36 35 34 33 32 30 29 29 29 28 27 27 27 27 27 26 26 24 21 18 17 17 17
2 3 6 4 3 4 3 3 6 10 10 7 5 5 6 6 3 2 5 3 2 2 3 2 4 7 6 4 8 11 10 8 6 5 7 13 15 16 18 18 18 18 21 21 19 20 20 20 20 19 20 21 23 25 27 29 31 32 34 35 36 36 35 35 34 33 32 31 29 28 27 27 27 27 28 28 28 27 26 24 21 19 18 18 19 19
4 5 5 3 3 4 2 1 1 6 10 9 6 5 5 4 5 5 6 4 2 2 2 2 5 8 6 4 6 8 8 8 8 7 10 14 15 14 15 14 15 17 19 19 19 18 18 18 17 18 19 20 21 23 25 26 28 29 31 32 33 33 33 32 31 30 29 28 27 26 26 26 26 27 28 27 27 26 24 22 20 20 20 20 21 22
5 5 4 3 1 3 3 3 4 2 6 7 7 7 5 5 6 5 4 3 2 3 3 3 7 8 5 3 5 8 11 12 13 12 13 17 18 16 16 14 13 16 18 19 18 18 17 17 17 17 18 19 20 21 22 23 24 25 26 27 27 28 28 29 28 27 27 26 25 25 25 25 25 25 26 26 26 25 24 22 21 21 22 22 23 23
5 3 5 5 3 2 2 2 3 3 3 4 4 5 5 5 5 2 1 2 2 7 6 5 8 7 5 4 4 7 7 9 13 13 13 17 19 17 15 13 12 15 18 19 18 18 18 18 18 17 17 18 18 19 19 20 20 21 21 22 22 23 24 25 26 26 26 25 25 25 25 25 25 26 26 26 25 24 23 23 23 23 24 24 25 24
6 4 6 7 7 8 7 5 6 4 2 2 3 5 6 7 8 4 2 2 7 8 6 7 8 5 6 7 7 6 4 6 11 11 10 12 16 15 12 11 11 13 17 19 19 18 18 18 18 17 17 17 16 16 17 17 17 17 18 19 20 22 23 25 26 27 26 26 26 26 26 26 27 27 26 25 24 24 24 24 24 25 25 25 25 24
4 2 8 10 10 10 8 4 6 11 9 8 9 10 8 8 10 7 3 6 9 3 4 13 12 7 9 9 9 8 7 6 8 9 10 11 12 12 9 8 9 11 15 18 18 19 19 18 18 17 16 16 15 15 15 16 16 17 18 20 22 23 24 25 26 26 26 26 26 26 27 27 26 25 24 24 25 25 25 26 26 26 27 26 25 23
3 4 12 11 8 6 5 5 9 13 14 13 12 12 10 9 11 11 12 15 8 4 10 13 9 10 12 8 9 12 9 6 6 9 13 14 11 9 8 7 8 10 13 16 18 19 19 18 17 17 16 16 15 15 16 17 17 18 19 21 22 23 24 24 25 25 25 25 26 26 26 26 25 24 25 25 26 26 27 27 27 28 27 26 25 23
3 7 11 10 8 4 5 8 10 11 10 9 11 13 12 12 13 16 19 14 8 8 14 6 6 12 10 5 10 11 5 4 8 11 14 14 10 8 7 7 8 9 12 15 17 18 18 18 17 17 16 16 16 17 18 19 20 20 20 20 21 22 23 24 24 25 25 25 26 26 26 26 26 26 26 27 27 28 28 28 29 29 28 26 25 24
4 6 6 7 8 3 2 6 8 10 9 8 11 14 14 15 17 19 20 13 8 15 16 6 8 13 6 5 11 10 7 7 7 10 12 12 11 9 8 9 9 10 12 14 15 16 17 17 17 17 17 17 18 20 21 22 22 22 21 21 22 22 23 24 25 25 25 26 26 26 27 27 28 28 28 28 29 29 29 29 30 29 28 27 25 24
2 4 3 6 6 1 1 4 4 6 8 8 11 15 17 19 18 18 16 11 10 17 14 9 15 14 5 7 12 17 20 16 8 9 13 12 10 10 10 11 11 12 13 13 14 15 16 17 17 18 19 19 20 21 22 23 23 23 22 22 22 23 23 25 26 26 26 27 27 27 28 28 29 29 29 29 29 30 30 30 30 29 28 27 26 25
3 2 2 6 5 4 3 6 5 4 3 3 12 16 18 17 15 15 14 12 14 16 12 11 15 10 5 7 12 18 25 22 15 16 18 14 10 10 12 14 14 14 13 13 14 15 16 16 17 18 19 19 20 22 23 24 24 24 24 23 22 23 24 25 27 27 27 27 28 28 29 29 29 29 30 31 31 31 32 31 30 29 28 27 26 25
5 5 3 5 6 4 3 7 7 6 5 7 13 14 16 15 14 14 15 16 18 16 12 13 13 6 7 9 12 13 15 17 19 21 22 20 16 15 17 17 17 17 16 16 17 16 15 16 17 18 20 20 20 22 22 24 25 25 24 24 24 25 26 27 28 28 28 28 28 29 29 29 30 30 31 32 32 32 32 31 30 30 28 27 26 24
8 8 4 5 6 3 2 6 7 5 3 9 7 13 18 18 18 18 17 17 18 16 14 15 12 6 7 10 13 12 15 20 24 23 22 21 21 23 24 24 24 24 22 20 19 18 16 16 17 19 20 20 20 20 22 24 25 25 25 25 26 27 28 28 29 29 29 29 29 29 29 29 31 32 32 33 33 33 32 31 31 29 28 27 25 24
11 9 4 3 4 3 3 7 6 6 10 6 1 9 19 21 21 21 18 17 18 19 19 19 15 11 10 14 18 18 20 25 24 22 20 19 21 25 27 29 29 28 26 23 20 20 19 19 19 19 19 19 19 20 22 25 26 27 27 27 28 28 29 29 30 30 29 29 29 29 30 31 32 33 34 34 34 33 33 32 31 30 28 27 25 23
13 10 4 2 4 3 4 7 8 7 5 3 3 2 8 9 9 12 12 15 17 18 18 19 18 15 13 17 20 17 16 18 17 18 21 19 20 23 24 26 28 27 24 22 20 20 20 19 19 18 18 19 20 20 22 25 28 30 30 30 30 30 31 31 31 31 31 31 31 31 32 32 33 34 34 34 34 34 33 32 31 30 29 27 26 24
10 10 6 3 3 3 4 6 5 5 8 7 4 3 4 6 7 8 8 12 15 17 16 15 15 16 14 20 27 20 11 10 10 16 26 25 23 25 25 26 27 25 22 20 20 21 20 19 18 17 17 19 20 20 21 23 28 31 32 32 32 31 32 33 33 33 33 33 33 32 33 34 34 35 35 35 35 34 34 33 31 30 29 28 26 25
5 7 8 7 3 3 5 3 3 4 9 9 5 6 10 14 14 12 7 10 10 15 20 18 15 17 16 20 26 18 9 7 6 15 31 35 31 30 30 30 29 26 23 24 23 23 22 21 20 17 16 17 18 20 21 23 27 31 34 34 34 33 34 35 35 35 34 34 33 33 33 34 34 35 36 36 36 35 34 33 32 30 29 28 27 26
3 2 6 8 3 3 6 5 6 9 9 5 7 8 13 19 16 11 2 9 6 14 24 22 16 17 19 21 21 14 9 7 7 17 37 40 34 34 34 33 32 28 27 27 25 24 24 23 23 21 18 18 18 19 21 22 25 29 33 36 36 36 36 37 36 35 34 34 33 33 34 35 35 36 36 36 36 35 34 33 32 31 29 28 27 25
5 3 4 7 6 6 7 6 5 5 7 6 8 10 17 23 18 11 2 10 6 15 26 24 19 22 26 27 20 12 9 12 13 22 35 34 29 30 28 27 27 25 25 26 26 26 26 25 25 24 21 18 17 18 20 22 24 28 32 35 37 38 38 37 35 34 34 34 33 34 35 36 36 37 37 37 36 35 34 33 32 31 30 29 28 26
4 4 4 7 8 6 7 7 5 4 6 7 5 11 23 24 13 6 9 7 4 11 19 22 25 29 30 26 19 14 21 29 26 24 23 19 19 19 16 15 16 16 18 20 23 25 26 26 26 24 20 17 15 16 18 20 23 26 29 32 35 37 37 36 34 34 35 35 35 35 36 37 37 38 37 37 36 35 34 33 32 32 31 30 28 27
6 4 3 6 7 5 5 5 4 6 8 9 9 14 21 15 4 8 7 4 4 8 12 18 24 26 26 26 27 28 33 34 29 24 19 15 12 10 9 10 11 11 13 14 15 17 19 21 21 20 18 15 13 14 16 18 20 23 25 28 30 32 34 36 36 36 36 36 36 37 37 38 38 38 38 38 37 36 35 34 33 32 30 29 28 26
8 8 7 7 6 4 2 5 4 7 7 19 20 9 7 5 4 8 8 6 5 8 9 13 16 18 20 23 27 31 31 27 25 26 24 19 14 11 12 13 12 12 12 10 10 10 10 11 13 13 12 11 10 11 13 15 18 19 22 24 26 28 32 35 37 37 37 37 37 37 38 39 39 39 39 39 38 37 35 34 33 32 30 29 28 26
6 8 8 6 5 6 6 9 7 4 9 28 25 11 13 13 6 9 10 7 5 6 7 8 10 11 14 15 16 20 23 24 23 23 22 21 18 16 14 13 11 11 10 8 7 7 6 6 7 7 8 8 9 10 12 14 17 19 21 23 24 27 31 34 36 37 37 38 38 38 39 40 40 41 40 39 38 37 35 34 33 32 31 30 28 27
8 8 7 4 5 5 5 7 4 1 15 31 25 17 27 29 13 6 7 5 4 6 7 7 7 7 7 8 10 11 14 16 16 16 16 16 14 12 11 10 10 10 9 8 7 5 4 4 5 6 7 8 9 10 11 13 16 18 20 22 24 27 29 31 34 36 37 37 38 39 39 40 41 41 40 39 38 37 36 35 34 33 32 30 29 28
4 4 5 3 2 4 4 4 3 3 14 26 20 14 25 33 24 14 9 5 4 8 9 8 7 5 5 8 9 9 9 9 9 10 11 11 10 11 11 10 10 10 9 7 5 4 4 5 7 8 10 10 10 11 11 12 14 16 18 20 22 24 26 28 31 33 35 37 38 39 40 41 41 41 41 40 38 36 35 34 34 33 32 31 30 29
3 3 4 3 3 5 6 5 7 7 16 24 21 14 17 25 28 26 20 13 10 10 11 11 8 7 8 8 9 9 9 9 8 9 9 11 11 11 11 11 11 10 8 7 6 5 5 6 7 8 10 10 11 11 10 11 12 14 15 17 19 21 23 25 28 30 33 35 37 39 40 41 42 42 41 40 39 37 36 35 34 33 32 31 30 29
4 7 6 4 6 6 4 4 7 10 17 24 23 17 14 18 24 27 26 23 18 13 11 11 10 10 10 10 11 11 11 11 11 11 11 12 13 13 12 12 11 10 8 8 7 6 6 6 5 7 9 10 10 10 10 10 11 12 13 15 17 19 21 23 26 28 31 33 36 38 40 41 42 42 42 41 40 38 37 36 35 34 32 31 30 28
9 10 7 5 5 4 3 3 5 5 7 16 22 22 20 19 21 24 26 26 23 19 16 13 11 11 11 12 13 14 14 14 14 14 14 16 16 15 15 13 12 11 10 9 8 7 7 6 6 9 11 11 10 10 10 10 10 11 12 14 16 18 20 22 24 26 29 32 35 38 40 42 42 42 42 41 40 38 38 37 35 34 32 31 29 27
10 8 5 5 7 9 6 8 12 7 2 12 24 28 27 25 23 24 25 25 25 23 21 18 15 13 13 14 15 16 16 16 15 15 17 18 17 17 15 14 13 12 11 10 9 7 7 8 11 13 13 12 11 11 11 11 11 11 11 12 14 16 18 21 22 25 27 30 33 37 40 41 42 42 41 41 40 39 39 38 36 35 33 31 30 29
11 10 10 9 10 12 10 20 25 15 7 17 31 33 31 29 27 26 26 25 25 24 22 20 18 17 16 15 16 17 17 17 17 17 17 17 17 17 16 14 14 13 12 13 11 9 8 10 12 14 15 15 13 12 11 11 11 11 11 11 13 15 18 20 22 24 26 29 32 35 38 40 41 42 41 41 40 40 39 39 38 36 35 34 33 32
Wind_Direction
157 157 199 200 172 167 174 170 147 118 126 135 144 182 194 225 254 260 264 290 332 276 245 220 216 239 245 250 252 240 223 223 231 239 241 237 234 231 228 227 229 231 234 235 232 231 232 233 235 235 235 236 235 233 233 233 234 235 237 238 239 239 240 238 234 231 230 228 228 229 231 234 237 239 242 244 247 250 254 257 258 258 260 261 260 261
168 193 205 188 164 163 169 153 126 107 107 116 127 171 209 226 250 272 268 290 341 183 260 249 230 248 249 252 248 206 194 222 226 229 236 237 236 235 234 233 233 236 238 238 236 233 233 234 235 236 236 236 235 233 231 231 231 233 235 236 238 238 239 237 233 230 230 229 229 231 234 238 243 245 247 250 254 260 264 264 261 258 259 261 261 259
184 211 180 158 151 148 154 151 141 123 113 118 114 133 232 232 270 275 268 301 328 184 275 285 235 254 258 256 243 196 205 236 235 233 237 238 238 237 236 236 235 237 238 238 238 237 234 235 235 236 236 236 235 233 232 232 231 231 232 234 235 235 236 234 231 229 230 231 233 237 240 243 248 250 252 256 258 261 262 263 262 259 255 258 258 257
188 206 145 138 142 143 150 156 149 143 145 158 146 152 230 239 339 268 279 344 321 223 284 294 252 263 265 262 253 219 224 241 246 246 248 244 243 243 240 238 237 237 239 239 239 238 236 235 234 235 236 236 235 233 232 230 230 230 229 230 232 232 233 232 230 229 231 234 238 242 244 246 248 248 249 251 252 253 253 254 258 258 256 258 258 255
163 164 141 137 144 148 146 156 157 162 185 190 183 183 200 202 289 289 337 338 309 287 284 305 297 274 254 256 262 235 225 240 247 246 249 247 246 247 244 242 241 240 241 242 242 241 239 237 236 236 237 237 235 234 232 230 230 230 229 229 229 231 231 230 229 230 232 236 239 240 242 243 242 242 242 243 244 246 248 252 259 261 258 257 257 258
168 188 153 140 151 154 147 170 174 172 189 208 210 197 177 178 251 304 339 351 338 305 290 312 273 267 279 261 255 246 220 237 243 236 240 244 244 244 243 244 244 243 244 245 246 246 245 243 241 240 239 237 237 235 233 233 232 232 232 230 230 230 231 231 230 231 232 235 237 239 240 240 239 239 238 239 242 246 252 260 266 264 256 252 252 255
175 184 155 148 156 157 160 184 183 172 177 222 204 172 168 184 219 301 324 340 296 276 294 328 238 266 306 267 242 244 238 240 238 230 237 241 241 239 242 246 246 244 244 245 247 247 247 246 243 242 240 238 238 236 234 234 234 234 234 233 232 231 232 232 232 231 232 234 237 239 241 242 243 243 242 245 249 255 263 265 263 261 255 251 247 243
138 140 142 153 151 160 181 190 186 175 168 220 169 150 169 193 204 293 308 269 238 291 293 269 205 268 276 252 240 232 251 257 249 242 243 242 241 240 243 248 247 245 244 244 245 245 246 247 245 242 240 240 240 238 235 234 233 233 234 234 234 234 233 233 233 233 233 234 236 239 241 243 244 245 247 251 254 258 262 259 258 258 255 253 249 245
120 157 169 161 158 181 195 170 170 171 157 201 148 141 163 168 156 287 286 257 281 348 280 256 171 232 260 264 305 114 234 253 249 242 245 243 241 240 243 247 248 246 244 245 245 243 244 246 247 246 243 241 242 240 238 236 234 233 233 234 235 235 234 234 235 235 236 236 238 241 243 244 245 246 248 250 253 253 254 254 253 252 253 253 250 248
158 187 177 165 175 193 163 122 161 170 159 146 122 102 108 100 83 115 149 210 312 283 253 242 193 219 261 265 241 218 232 239 246 247 242 243 242 240 242 245 247 246 245 245 245 243 243 246 249 249 245 242 240 240 240 237 234 232 232 233 234 234 234 235 236 237 238 238 240 242 243 244 244 246 247 248 250 250 251 251 248 247 250 251 251 250
36 175 174 167 176 160 110 114 164 168 137 113 103 80 69 57 52 65 75 89 81 262 246 224 199 217 263 251 203 221 221 205 221 245 247 247 244 243 243 243 245 245 245 246 245 244 244 245 247 246 244 241 238 238 238 237 233 231 231 231 232 234 234 234 235 236 238 239 240 242 243 244 244 245 247 248 249 249 250 250 246 246 246 247 253 253
53 116 172 175 141 129 100 97 151 139 97 83 87 94 88 44 35 37 14 85 190 254 251 205 178 201 244 237 200 245 243 207 212 220 229 240 242 243 243 244 244 246 248 249 249 249 246 246 246 243 241 240 237 236 235 235 235 232 230 230 231 232 232 233 234 235 237 238 240 241 242 244 244 245 247 247 247 248 250 248 245 244 243 245 249 248
79 151 189 155 157 150 128 104 100 97 95 94 106 124 126 124 92 169 211 146 224 246 300 68 137 199 246 244 244 263 267 249 236 222 219 229 237 242 244 246 248 249 250 252 252 252 250 247 245 241 239 238 237 237 237 236 236 234 231 230 230 230 231 232 232 233 235 237 238 240 241 242 242 243 244 244 244 246 246 245 243 240 238 243 244 244
58 287 186 153 179 171 158 149 152 170 164 142 135 152 158 146 165 200 198 192 245 252 310 34 123 245 266 257 236 241 241 241 243 239 237 238 242 247 249 249 249 247 248 250 250 250 249 246 242 239 237 237 237 238 238 236 235 235 233 231 230 230 230 231 232 232 234 235 237 238 238 239 239 239 238 238 239 241 243 242 243 240 235 239 243 247
145 284 199 179 179 174 172 171 154 135 152 159 133 136 158 155 178 196 190 209 243 262 284 313 144 216 237 251 238 236 245 249 248 248 248 248 247 250 253 250 247 247 248 249 249 248 247 242 237 235 235 236 237 237 238 236 233 234 233 232 231 230 229 230 230 232 233 234 236 235 235 235 235 235 236 236 236 237 240 240 241 241 237 236 238 243
155 272 227 164 150 159 170 171 138 121 138 172 130 121 224 186 154 153 189 211 226 270 268 226 222 223 219 274 280 272 271 262 249 247 248 248 247 249 255 254 250 251 252 251 249 248 245 238 232 231 231 232 234 234 236 235 233 233 233 232 231 230 230 230 231 232 233 235 236 235 234 234 233 233 234 237 238 235 234 236 238 240 238 236 236 237
157 279 316 96 135 167 177 170 156 149 149 154 171 186 199 156 105 74 224 9 56 244 249 191 240 278 302 279 286 310 292 274 254 249 245 244 246 249 251 250 249 252 254 255 250 245 241 235 230 228 227 229 232 234 236 235 234 233 233 232 231 231 231 231 232 234 235 236 236 236 235 234 234 233 233 237 238 231 227 228 232 236 237 238 238 233
150 90 274 138 152 191 181 168 175 176 150 150 192 182 130 87 76 90 226 345 73 239 267 199 232 260 254 263 288 292 258 272 262 247 244 246 249 250 248 246 248 250 252 254 249 237 231 228 226 226 226 228 231 232 233 233 233 233 233 233 232 233 233 234 235 236 237 238 238 238 236 234 234 233 233 236 235 227 224 223 225 229 234 236 235 228
136 82 288 198 156 186 164 157 181 202 165 157 177 156 133 183 202 159 175 214 193 232 278 280 251 244 217 242 280 211 224 243 251 243 243 249 247 246 246 246 248 247 246 251 245 232 225 222 222 223 224 227 228 230 231 231 233 233 233 233 233 234 235 236 238 239 239 240 239 239 237 234 233 232 231 231 229 225 223 222 222 225 230 231 227 223
132 106 226 236 158 150 147 166 186 196 182 61 116 166 166 191 191 176 172 170 172 218 268 291 297 259 229 224 222 230 232 231 241 241 231 237 239 243 248 250 251 248 244 246 240 228 221 218 219 220 223 226 228 231 233 234 235 235 234 235 234 234 235 236 238 239 240 241 239 238 235 232 231 230 227 226 225 224 221 221 223 225 226 224 219 215
129 111 141 176 140 151 173 203 185 177 183 175 170 189 196 175 137 156 190 165 130 181 233 266 281 268 251 212 201 225 237 229 233 241 241 249 251 253 255 256 256 249 239 234 229 223 219 219 221 223 227 231 233 235 236 236 236 236 235 236 235 235 236 236 237 238 239 239 238 236 232 231 228 224 221 220 222 221 218 219 222 222 219 214 210 208
123 109 135 146 172 178 200 229 178 174 182 183 183 193 194 185 143 155 212 197 116 181 199 209 271 267 255 223 208 219 230 230 237 245 252 265 269 268 266 260 255 248 237 229 223 221 221 223 227 232 235 238 238 238 237 236 236 235 235 236 236 236 236 236 237 237 237 236 234 232 229 227 224 218 215 216 217 216 216 219 221 216 211 206 204 201
116 101 117 138 191 204 230 307 174 180 175 172 198 199 170 174 178 195 214 189 149 214 173 157 266 269 254 235 230 242 262 281 287 278 269 277 281 279 278 269 254 243 235 229 225 223 226 231 236 240 241 240 239 238 236 236 235 234 234 234 235 235 235 235 235 234 234 231 228 226 223 221 219 215 214 214 214 215 217 219 215 208 204 202 199 195
133 99 98 101 17 317 321 358 8 21 159 176 208 194 163 185 196 201 206 153 170 214 172 209 257 271 271 246 246 268 284 287 280 269 266 275 280 277 277 275 256 239 231 227 226 227 231 238 242 243 242 239 238 238 237 236 235 234 233 232 232 232 231 230 229 228 227 225 223 220 218 217 217 216 215 215 216 216 215 210 204 200 200 198 195 193
154 125 120 117 89 4 323 285 276 266 197 188 192 174 171 162 139 150 169 103 252 232 197 220 249 258 273 284 286 280 288 290 277 269 264 269 278 280 276 272 258 238 229 225 225 229 235 240 242 241 239 238 238 240 240 238 237 234 231 229 227 225 223 221 220 220 220 219 218 217 216 216 217 216 216 215 213 209 204 200 197 197 197 194 192 193
157 160 150 145 158 183 197 214 209 183 166 198 144 146 169 158 149 163 120 142 243 236 204 231 252 271 298 313 314 284 271 289 281 277 273 273 283 287 275 265 256 238 229 227 228 233 238 241 242 239 238 238 237 239 240 238 236 231 225 222 220 217 214 212 212 214 215 216 217 217 217 216 215 214 211 208 203 198 196 196 196 196 194 192 193 195
132 172 187 185 184 184 182 180 144 132 155 200 184 162 168 172 169 155 136 217 228 203 223 242 247 266 283 300 308 291 285 295 290 294 300 297 298 296 278 261 254 238 229 228 230 236 240 242 243 242 239 237 234 234 233 232 230 226 220 216 214 212 210 208 209 210 212 214 216 216 215 213 210 207 202 198 196 194 195 195 195 195 193 192 194 197
103 192 199 200 195 174 150 149 145 151 177 193 179 173 176 170 168 173 204 220 193 153 240 242 224 237 251 259 278 284 291 295 293 305 311 312 309 297 282 264 248 236 229 229 232 237 240 242 243 244 242 237 232 228 225 224 223 221 220 217 214 212 208 205 205 207 208 209 210 209 208 205 202 198 195 195 195 195 196 195 194 193 193 193 194 198
149 199 195 187 187 170 136 154 157 162 180 179 175 187 187 175 179 197 216 216 158 195 241 228 182 228 236 228 256 267 270 279 298 309 311 311 306 294 285 269 250 240 234 234 238 240 242 243 242 243 244 239 231 225 220 220 219 217 216 216 214 211 207 202 201 202 202 203 202 201 199 197 195 194 194 195 196 197 196 195 193 193 195 195 196 198
160 190 178 156 169 166 128 163 160 157 166 175 189 196 193 194 199 208 221 219 197 231 250 258 250 250 228 214 255 270 270 274 300 310 303 299 296 293 286 272 261 251 243 243 246 247 249 250 248 245 244 239 232 225 221 219 218 216 214 212 210 207 203 200 198 198 198 197 196 195 193 193 194 195 196 197 198 197 195 194 195 195 196 197 199 201
145 176 136 116 143 188 134 143 137 149 163 185 205 206 203 205 210 217 223 218 220 241 250 260 267 265 226 226 265 281 279 274 274 284 286 281 277 277 273 266 261 255 251 252 253 253 253 253 252 248 243 239 233 227 223 221 218 216 213 210 206 202 199 198 195 194 194 194 193 192 193 195 197 197 198 198 198 196 196 196 197 197 198 200 201 203
82 134 106 108 143 228 191 142 135 110 102 233 236 221 207 206 211 219 220 211 219 237 242 247 261 257 189 208 246 263 270 272 268 267 269 267 261 260 260 259 260 259 260 263 260 258 259 259 258 255 249 242 235 229 226 223 220 217 213 208 203 198 196 195 194 193 194 194 194 196 197 199 200 201 200 199 198 197 197 198 198 199 201 202 203 205
118 126 128 133 162 228 205 151 140 91 54 275 249 215 200 207 211 215 221 216 215 222 226 235 244 217 164 199 230 244 257 265 265 260 259 259 256 255 257 259 264 268 269 270 267 264 268 269 266 264 259 251 242 234 228 224 221 218 213 207 202 199 197 197 196 197 198 199 200 202 202 203 203 203 202 200 199 198 198 199 200 201 202 204 206 208
137 139 160 165 159 202 190 130 112 104 209 250 229 167 179 201 207 211 220 219 215 220 228 237 242 212 177 205 225 234 242 254 262 262 260 260 257 258 262 265 270 274 273 273 272 270 272 271 266 264 261 257 251 241 231 225 221 217 213 208 205 203 202 202 203 204 204 205 206 206 206 206 205 205 203 202 200 199 199 200 201 202 204 206 208 210
158 158 170 161 131 151 151 118 127 201 224 249 28 155 184 197 203 210 219 220 217 222 230 238 241 224 209 222 229 233 243 255 265 269 265 261 254 255 262 266 269 271 272 273 272 268 267 267 267 266 263 259 254 243 234 227 221 217 213 211 210 210 209 209 210 211 210 210 210 210 210 209 207 206 205 203 202 200 201 202 203 204 206 208 210 212
171 168 155 126 124 131 143 155 183 226 261 308 351 230 195 185 191 207 228 239 229 224 229 234 238 235 229 237 242 244 253 262 271 270 262 256 249 248 255 261 263 265 269 272 271 268 268 270 273 273 268 263 256 246 238 230 223 220 216 214 214 214 215 215 215 215 215 214 214 213 212 211 209 208 207 205 203 202 203 204 205 206 208 209 210 212
172 163 144 158 176 129 146 195 228 315 312 272 237 213 167 145 154 175 218 246 232 224 228 228 236 242 234 238 244 242 243 262 275 265 255 251 248 248 252 259 262 265 267 266 267 270 274 275 275 274 270 265 259 252 245 235 228 224 221 220 219 219 219 220 219 218 218 217 217 216 214 213 211 210 209 207 206 205 206 206 207 209 211 212 212 213
167 167 158 170 188 98 124 203 261 270 266 248 195 175 177 170 164 161 201 248 225 213 220 218 224 233 227 235 239 226 212 243 263 259 256 254 250 249 252 256 260 263 262 260 263 269 273 276 277 275 270 265 261 255 248 240 234 229 226 225 225 224 223 223 222 221 220 219 219 217 216 215 214 213 211 210 209 208 208 208 209 210 212 213 215 215
110 125 153 159 161 139 156 191 209 219 246 223 155 175 184 172 151 122 192 262 219 196 209 210 215 225 224 228 223 192 182 230 241 252 256 257 254 250 249 252 257 260 261 262 264 266 268 273 274 273 269 263 260 257 251 244 239 235 232 231 229 229 228 227 226 225 223 222 221 220 219 217 215 214 213 212 211 211 211 211 211 211 212 212 214 216
148 157 169 173 184 180 180 203 219 234 250 216 183 187 173 157 134 105 232 258 226 197 203 200 201 217 223 222 209 177 188 219 228 247 253 257 260 256 252 253 256 259 262 261 261 259 260 264 267 270 272 269 265 263 257 250 243 238 237 235 234 234 234 233 232 230 227 225 224 222 221 218 216 215 214 213 213 212 212 213 213 213 213 213 213 214
155 178 190 188 190 180 182 210 248 267 237 225 215 175 155 141 127 159 215 234 221 206 202 195 203 218 222 215 198 194 219 225 229 243 253 259 261 257 253 253 253 256 259 258 258 258 257 260 264 269 274 272 264 259 258 255 248 243 240 238 238 240 240 239 237 233 230 228 225 223 222 219 217 215 213 213 214 214 214 215 215 215 215 215 215 215
166 178 190 186 182 170 181 205 258 279 229 183 159 164 156 143 168 214 195 151 168 193 191 194 209 222 223 215 209 216 228 230 230 240 250 254 252 244 239 243 247 254 259 260 262 263 262 263 265 268 272 272 265 258 255 254 253 249 245 243 244 244 243 240 238 234 231 229 226 224 222 219 216 215 213 213 214 215 216 215 214 215 216 217 217 216
174 170 186 196 173 144 169 183 209 270 212 146 132 144 185 185 188 170 145 125 158 173 177 195 217 227 225 223 224 227 234 236 236 240 244 243 242 241 242 248 253 257 258 258 262 266 268 268 266 267 269 267 261 256 251 251 251 250 248 249 248 246 243 241 238 236 233 230 227 224 222 219 216 215 214 214 214 215 216 216 215 215 216 217 217 217
186 177 188 207 184 165 187 194 203 275 164 150 146 169 207 197 151 125 144 159 162 167 186 209 229 232 227 231 235 235 238 241 242 244 245 244 246 249 250 249 246 243 245 249 253 259 267 273 274 274 271 266 260 254 249 248 249 248 249 249 247 244 243 241 239 236 233 230 228 224 221 219 216 215 215 214 215 215 216 217 218 218 217 217 217 218
209 193 173 183 194 191 203 204 207 152 162 168 171 185 192 193 185 140 155 166 164 183 201 211 216 214 211 224 234 235 237 241 244 245 244 246 248 245 239 232 225 228 237 240 242 250 266 282 294 294 288 283 275 265 258 254 253 252 251 250 247 246 245 242 240 238 234 231 228 225 221 219 216 216 216 215 216 216 216 218 219 219 219 219 218 219
229 182 145 143 207 255 263 212 170 150 175 180 184 184 190 197 206 208 207 207 193 195 199 202 214 218 208 216 228 237 246 251 250 244 237 234 231 222 215 213 216 223 226 225 229 248 270 289 297 295 293 291 284 277 271 263 260 258 256 254 252 251 249 246 244 241 237 233 229 225 222 219 217 216 216 216 217 217 218 221 222 222 222 221 220 221
284 188 158 138 159 208 230 190 156 174 192 191 192 192 191 199 210 219 226 227 215 202 197 200 218 236 234 231 234 243 255 262 259 250 235 223 219 213 206 207 213 215 215 219 232 249 265 280 286 287 289 286 282 280 276 267 263 261 257 255 255 253 251 248 246 243 239 235 231 226 223 220 219 217 216 216 217 217 218 220 222 223 223 223 223 223
201 176 175 178 170 179 206 187 166 184 200 201 203 206 201 202 211 221 229 230 224 214 206 206 216 232 244 251 249 247 254 256 254 251 238 222 214 210 206 206 209 211 218 229 241 253 260 265 275 290 292 282 275 276 274 270 268 264 258 257 255 251 249 247 246 244 241 237 232 228 224 221 220 219 218 218 218 218 219 220 221 223 224 225 226 227
138 157 177 174 170 203 266 225 160 155 213 220 217 213 209 209 213 219 226 229 228 225 226 226 228 232 239 247 249 249 253 251 247 244 234 221 212 208 206 206 210 219 228 236 245 257 269 286 303 305 294 278 268 268 269 268 266 261 256 255 254 252 249 248 246 244 241 237 233 228 225 222 220 220 220 220 220 220 221 222 223 224 224 225 227 228
139 165 175 138 176 219 236 182 167 151 191 218 212 210 210 212 214 218 223 228 230 232 233 234 235 235 235 237 240 244 246 245 241 236 226 216 211 210 211 215 220 225 232 236 240 252 276 295 300 294 284 276 269 266 266 265 265 263 260 258 256 254 252 249 247 244 241 238 233 229 226 223 221 220 221 222 222 223 223 222 222 223 224 225 226 228
179 179 169 165 205 221 186 165 174 181 193 203 205 208 210 211 214 218 222 226 231 235 236 236 238 237 235 234 233 234 237 237 232 224 215 209 210 214 217 221 223 223 225 226 227 233 248 262 271 273 273 274 272 270 268 266 265 265 263 259 257 255 253 252 249 246 243 239 235 231 228 225 224 222 222 222 223 224 225 224 222 222 222 224 226 228